When you browse on this site, cookies collect data to enhance your experience and personalize the content and advertising you see.
Visit our Privacy Policy to learn more. By continuing to use the site, you agree to this use of cookies and data.
  • In Latvia
  • List of Countries
  • For 7 days
  • Water Temperature
  • Satellite Maps
  • Weather Map
  • Weather Widgets
  • user-avatar
    Login

    Hourly Weather Posadza

    Today, 20 February, Wednesday

    Time Temperature Precipitation Wind Pressure Humidity
    00:00 +5°C° 0.4 mm 4 mps 739 mmHg 83%
    01:00 +4°C° 0 mm 4 mps 739 mmHg 84%
    02:00 +4°C° 0 mm 4 mps 739 mmHg 85%
    03:00 +3°C° 0 mm 4 mps 739 mmHg 86%
    04:00 +3°C° 0 mm 4 mps 739 mmHg 87%
    05:00 +1°C° 0 mm 5 mps 739 mmHg 87%
    06:00 +1°C° 0 mm 5 mps 740 mmHg 86%
    07:00 +1°C° 0 mm 5 mps 740 mmHg 86%
    08:00 +2°C° 0 mm 5 mps 740 mmHg 82%
    09:00 +3°C° 0 mm 6 mps 741 mmHg 78%
    10:00 +3°C° 0 mm 6 mps 741 mmHg 74%
    11:00 +4°C° 0 mm 6 mps 741 mmHg 70%
    12:00 +4°C° 0 mm 6 mps 741 mmHg 66%
    13:00 +5°C° 0 mm 7 mps 741 mmHg 58%
    14:00 +5°C° 0.1 mm 7 mps 741 mmHg 59%
    15:00 +5°C° 0.1 mm 6 mps 742 mmHg 59%
    16:00 +5°C° 0.1 mm 6 mps 742 mmHg 59%
    17:00 +5°C° 0 mm 5 mps 742 mmHg 63%
    18:00 +5°C° 0 mm 4 mps 742 mmHg 67%
    19:00 +4°C° 0 mm 4 mps 743 mmHg 71%
    20:00 +4°C° 0 mm 4 mps 743 mmHg 73%
    21:00 +3°C° 0 mm 4 mps 743 mmHg 75%
    22:00 +3°C° 0 mm 4 mps 744 mmHg 77%
    23:00 +3°C° 0 mm 4 mps 744 mmHg 78%

    Tomorrow, 21 February, Thursday

    Time Temperature Precipitation Wind Pressure Humidity
    00:00 +1°C° 0 mm 4 mps 744 mmHg 80%
    01:00 +1°C° 0 mm 4 mps 744 mmHg 81%
    02:00 +1°C° 0 mm 4 mps 744 mmHg 82%
    03:00 +1°C° 0 mm 4 mps 744 mmHg 83%
    04:00 +1°C° 0 mm 4 mps 745 mmHg 83%
    05:00 +1°C° 0 mm 4 mps 745 mmHg 82%
    06:00 +1°C° 0 mm 4 mps 745 mmHg 81%
    07:00 +1°C° 0 mm 4 mps 745 mmHg 80%
    08:00 +3°C° 0 mm 4 mps 745 mmHg 76%
    09:00 +3°C° 0 mm 5 mps 745 mmHg 73%
    10:00 +5°C° 0 mm 5 mps 745 mmHg 69%
    11:00 +6°C° 0 mm 5 mps 745 mmHg 65%
    12:00 +7°C° 0 mm 5 mps 744 mmHg 61%
    13:00 +8°C° 0 mm 5 mps 744 mmHg 56%
    14:00 +8°C° 0.1 mm 5 mps 744 mmHg 60%
    15:00 +7°C° 0.1 mm 5 mps 743 mmHg 63%
    16:00 +7°C° 0.1 mm 4 mps 743 mmHg 67%
    17:00 +6°C° 0.4 mm 5 mps 743 mmHg 70%
    18:00 +6°C° 0.4 mm 5 mps 743 mmHg 74%
    19:00 +6°C° 0.4 mm 5 mps 743 mmHg 77%
    20:00 +5°C° 0.6 mm 5 mps 743 mmHg 79%
    21:00 +4°C° 0.6 mm 6 mps 742 mmHg 80%
    22:00 +4°C° 0.6 mm 6 mps 742 mmHg 81%
    23:00 +4°C° 0.4 mm 6 mps 742 mmHg 81%

    Day after tomorrow, 22 February, Friday

    Time Temperature Precipitation Wind Pressure Humidity
    00:00 +4°C° 0.4 mm 6 mps 741 mmHg 82%
    01:00 +4°C° 0.4 mm 6 mps 741 mmHg 82%
    02:00 +4°C° 0.3 mm 6 mps 741 mmHg 84%
    03:00 +4°C° 0.3 mm 6 mps 740 mmHg 86%
    04:00 +4°C° 0.3 mm 6 mps 740 mmHg 88%
    05:00 +4°C° 0.6 mm 6 mps 741 mmHg 88%
    06:00 +4°C° 0.6 mm 6 mps 741 mmHg 87%
    07:00 +3°C° 0.6 mm 6 mps 742 mmHg 87%
    08:00 +2°C° 0.1 mm 6 mps 743 mmHg 83%
    09:00 -1°C° 0.1 mm 7 mps 744 mmHg 78%
    10:00 -2°C° 0.1 mm 7 mps 745 mmHg 73%
    11:00 -2°C° 0 mm 6 mps 746 mmHg 67%
    12:00 -2°C° 0 mm 6 mps 747 mmHg 61%
    13:00 -2°C° 0 mm 6 mps 748 mmHg 55%
    14:00 -2°C° 0 mm 6 mps 749 mmHg 52%
    15:00 -1°C° 0 mm 5 mps 750 mmHg 48%
    16:00 -2°C° 0 mm 5 mps 750 mmHg 44%
    17:00 -4°C° 0 mm 5 mps 751 mmHg 47%
    18:00 -4°C° 0 mm 5 mps 752 mmHg 50%
    19:00 -5°C° 0 mm 5 mps 752 mmHg 53%
    20:00 -6°C° 0 mm 5 mps 753 mmHg 52%
    21:00 -5°C° 0 mm 4 mps 753 mmHg 51%
    22:00 -5°C° 0 mm 4 mps 754 mmHg 50%
    23:00 -5°C° 0 mm 4 mps 754 mmHg 48%

    23 February, Saturday

    Time Temperature Precipitation Wind Pressure Humidity
    00:00 -7°C° 0 mm 4 mps 754 mmHg 45%
    01:00 -7°C° 0 mm 4 mps 755 mmHg 43%
    02:00 -7°C° 0 mm 4 mps 755 mmHg 42%
    03:00 -6°C° 0 mm 3 mps 755 mmHg 41%
    04:00 -6°C° 0 mm 3 mps 755 mmHg 40%
    05:00 -6°C° 0 mm 3 mps 755 mmHg 41%
    06:00 -7°C° 0 mm 3 mps 755 mmHg 41%
    07:00 -7°C° 0 mm 3 mps 756 mmHg 42%
    08:00 -6°C° 0 mm 3 mps 756 mmHg 39%
    09:00 -5°C° 0 mm 3 mps 756 mmHg 36%
    10:00 -5°C° 0 mm 3 mps 757 mmHg 32%
    11:00 -4°C° 0 mm 3 mps 757 mmHg 30%
    12:00 -2°C° 0 mm 3 mps 756 mmHg 28%
    13:00 -2°C° 0 mm 2 mps 756 mmHg 25%
    14:00 -2°C° 0 mm 2 mps 756 mmHg 26%
    15:00 -2°C° 0 mm 2 mps 756 mmHg 27%
    16:00 -2°C° 0 mm 2 mps 756 mmHg 27%
    17:00 -2°C° 0 mm 2 mps 756 mmHg 31%
    18:00 -1°C° 0 mm 1 mps 756 mmHg 34%
    19:00 -2°C° 0 mm 1 mps 756 mmHg 37%
    20:00 -2°C° 0 mm 1 mps 756 mmHg 37%
    21:00 -3°C° 0 mm 0 mps 756 mmHg 38%
    22:00 -3°C° 0 mm 0 mps 756 mmHg 38%
    23:00 -3°C° 0 mm 0 mps 756 mmHg 38%

    24 February, Sunday

    Time Temperature Precipitation Wind Pressure Humidity
    00:00 -3°C° 0 mm 0 mps 756 mmHg 37%
    01:00 -2°C° 0 mm 1 mps 756 mmHg 37%
    02:00 -2°C° 0 mm 1 mps 755 mmHg 36%
    03:00 -3°C° 0 mm 2 mps 755 mmHg 34%
    04:00 -3°C° 0 mm 2 mps 755 mmHg 33%
    05:00 -3°C° 0 mm 2 mps 754 mmHg 33%
    06:00 -3°C° 0 mm 2 mps 754 mmHg 33%
    07:00 -2°C° 0 mm 2 mps 754 mmHg 33%
    08:00 -2°C° 0 mm 2 mps 754 mmHg 31%
    09:00 -1°C° 0 mm 3 mps 754 mmHg 29%
    10:00 0°C° 0 mm 3 mps 754 mmHg 28%
    11:00 0°C° 0 mm 4 mps 753 mmHg 28%
    12:00 +1°C° 0 mm 4 mps 753 mmHg 29%
    13:00 +3°C° 0 mm 4 mps 752 mmHg 30%
    14:00 +3°C° 0 mm 4 mps 752 mmHg 34%
    15:00 +3°C° 0 mm 4 mps 752 mmHg 37%
    16:00 +1°C° 0 mm 4 mps 751 mmHg 41%
    17:00 +1°C° 0 mm 4 mps 751 mmHg 46%
    18:00 +1°C° 0 mm 4 mps 751 mmHg 50%
    19:00 0°C° 0 mm 4 mps 751 mmHg 55%
    20:00 0°C° 0 mm 4 mps 751 mmHg 60%
    21:00 0°C° 0 mm 5 mps 751 mmHg 64%
    22:00 0°C° 0 mm 5 mps 751 mmHg 69%
    23:00 -1°C° 0 mm 5 mps 750 mmHg 72%

    25 February, Monday

    Time Temperature Precipitation Wind Pressure Humidity
    00:00 -1°C° 0 mm 5 mps 750 mmHg 76%
    01:00 -2°C° 0 mm 6 mps 750 mmHg 80%
    02:00 -1°C° 0 mm 5 mps 750 mmHg 83%
    03:00 0°C° 0 mm 5 mps 750 mmHg 86%
    04:00 0°C° 0 mm 5 mps 750 mmHg 89%
    05:00 0°C° 0 mm 5 mps 750 mmHg 90%
    06:00 0°C° 0 mm 5 mps 750 mmHg 90%
    07:00 0°C° 0 mm 4 mps 750 mmHg 91%
    08:00 0°C° 0 mm 5 mps 750 mmHg 84%
    09:00 0°C° 0 mm 5 mps 750 mmHg 78%
    10:00 +1°C° 0 mm 6 mps 750 mmHg 72%
    11:00 +2°C° 0 mm 6 mps 750 mmHg 64%
    12:00 +3°C° 0 mm 7 mps 750 mmHg 56%
    13:00 +4°C° 0 mm 7 mps 750 mmHg 49%
    14:00 +4°C° 0 mm 7 mps 750 mmHg 51%
    15:00 +3°C° 0 mm 7 mps 749 mmHg 53%
    16:00 +3°C° 0 mm 7 mps 749 mmHg 55%
    17:00 +2°C° 0 mm 6 mps 749 mmHg 58%
    18:00 +1°C° 0 mm 5 mps 750 mmHg 62%
    19:00 0°C° 0 mm 4 mps 750 mmHg 65%
    20:00 0°C° 0 mm 4 mps 750 mmHg 69%
    21:00 -1°C° 0 mm 4 mps 750 mmHg 72%
    22:00 -1°C° 0 mm 4 mps 750 mmHg 76%
    23:00 -1°C° 0 mm 4 mps 750 mmHg 76%
    Show more